User: anonymous   Login
Location: *
(40.7765°S, 106.5327°E)
Time: 19:57:57
(UTC+00:00)
Language:

ATLAS 2AS CENTAUR R/B - Orbit

View from above orbital plane
View from above orbital plane
View from above satellite
View from above satellite

Ground track
Ground track

The orbit data is extracted from the following two-line orbital elements,

1 28096U 03054B   22179.89012126 0.00000000  00000-0  00000-0 0    00
2 28096  63.6586  94.3065 0177116 202.7651 157.1197 13.40887666    04
Epoch (UTC): 28 June 2022 21:21:46
Eccentricity: 0.0177116
inclination: 63.6586°
perigee height: 973 km
apogee height: 1238 km
right ascension of ascending node: 94.3065°
argument of perigee: 202.7651°
revolutions per day: 13.40887666
mean anomaly at epoch: 157.1197°
orbit number at epoch: 0

The dashed part of the orbit path shows where the satellite is in the earth's shadow,  

DLR